Blue Hill Weather Center

Moon Phase Calendar



Online Cameras

 


      

Current Conditions in Surry
6/17/2024 2:14:38 PM

62°F
Feels Like 62
Rain
Humidity
81%
Pressure
30.21"
Wind
12.7 mph (S)
Dew Point
56°F
UV Index
2/10 (Low)
Visibility
6 mi

Hourly Forecast

Date & Time Mon, Jun 17
2:00 PM
Mon, Jun 17
3:00 PM
Mon, Jun 17
4:00 PM
Mon, Jun 17
5:00 PM
Mon, Jun 17
6:00 PM
Mon, Jun 17
7:00 PM
Mon, Jun 17
8:00 PM
Mon, Jun 17
9:00 PM
Mon, Jun 17
10:00 PM
Mon, Jun 17
11:00 PM
Tue, Jun 18
12:00 AM
Tue, Jun 18
1:00 AM
Tue, Jun 18
2:00 AM
Tue, Jun 18
3:00 AM
Tue, Jun 18
4:00 AM
Tue, Jun 18
5:00 AM
Tue, Jun 18
6:00 AM
Tue, Jun 18
7:00 AM
Tue, Jun 18
8:00 AM
Tue, Jun 18
9:00 AM
Tue, Jun 18
10:00 AM
Tue, Jun 18
11:00 AM
Tue, Jun 18
12:00 PM
Tue, Jun 18
1:00 PM
Tue, Jun 18
2:00 PM
Tue, Jun 18
3:00 PM
Tue, Jun 18
4:00 PM
Tue, Jun 18
5:00 PM
Tue, Jun 18
6:00 PM
Tue, Jun 18
7:00 PM
Tue, Jun 18
8:00 PM
Tue, Jun 18
9:00 PM
Tue, Jun 18
10:00 PM
Tue, Jun 18
11:00 PM
Wed, Jun 19
12:00 AM
Wed, Jun 19
1:00 AM
Wed, Jun 19
2:00 AM
Wed, Jun 19
3:00 AM
Wed, Jun 19
4:00 AM
Wed, Jun 19
5:00 AM
Wed, Jun 19
6:00 AM
Wed, Jun 19
7:00 AM
Wed, Jun 19
8:00 AM
Wed, Jun 19
9:00 AM
Wed, Jun 19
10:00 AM
Wed, Jun 19
11:00 AM
Wed, Jun 19
12:00 PM
Wed, Jun 19
1:00 PM
Condition
Clear

Rain

Clouds

Clouds

Clouds

Clouds

Clouds

Clouds

Clouds

Clouds

Clouds

Clouds

Clouds

Clouds

Clouds

Clouds

Clouds

Clouds

Clouds

Clouds

Clouds

Clouds

Clouds

Clouds

Clouds

Clouds

Clouds

Clouds

Clouds

Clouds

Clouds

Clouds

Clouds

Clouds

Rain

Clouds

Clouds

Clouds

Clouds

Clouds

Clouds

Clouds

Clouds

Clouds

Clouds

Clouds

Clouds

Clouds
Temperature 62°F62°F61°F59°F58°F58°F58°F57°F55°F55°F57°F57°F57°F56°F55°F55°F57°F61°F65°F69°F71°F73°F75°F75°F75°F74°F73°F71°F69°F66°F61°F59°F59°F60°F60°F60°F59°F59°F59°F60°F62°F66°F70°F73°F76°F79°F81°F82°F
Feels Like 62°F61°F60°F59°F58°F57°F57°F56°F54°F55°F56°F57°F57°F56°F55°F55°F57°F61°F65°F69°F71°F74°F75°F76°F75°F74°F73°F72°F69°F66°F62°F60°F60°F60°F60°F60°F60°F59°F59°F60°F62°F66°F70°F74°F77°F79°F83°F85°F
Cloudiness 0%20%40%60%80%100%100%88%94%97%98%98%98%100%99%89%92%94%95%100%100%100%100%97%95%100%74%65%59%57%56%92%96%99%89%92%93%92%89%89%81%73%71%39%34%31%29%27%
Visibility 6 mi6 mi6 mi6 mi6 mi6 mi6 mi6 mi6 mi6 mi6 mi6 mi6 mi6 mi6 mi6 mi6 mi6 mi6 mi6 mi6 mi6 mi6 mi6 mi6 mi6 mi6 mi6 mi6 mi5 mi6 mi1 mi2 mi5 mi2 mi2 mi2 mi5 mi6 mi6 mi6 mi5 mi5 mi6 mi6 mi6 mi6 mi6 mi
Precipitation 0%20%0%0%0%0%0%0%0%0%0%0%0%0%0%0%0%0%0%0%0%0%0%0%0%0%0%0%0%0%0%0%0%14%40%26%15%0%0%0%0%0%0%0%0%0%0%0%
Humidity 81%80%80%84%85%85%87%89%95%95%93%94%95%98%99%99%96%89%81%74%70%67%65%64%65%66%69%72%77%85%96%99%99%99%99%99%99%99%98%98%96%91%84%75%69%65%62%60%
Dew Point 56°F55°F55°F54°F54°F53°F53°F53°F53°F54°F55°F55°F55°F55°F55°F55°F56°F58°F59°F60°F61°F61°F62°F62°F61°F61°F62°F62°F62°F61°F60°F59°F59°F59°F59°F59°F59°F59°F59°F59°F61°F63°F64°F65°F65°F65°F66°F66°F
Pressure 30.21"30.21"30.18"30.18"30.15"30.18"30.18"30.18"30.18"30.18"30.18"30.18"30.15"30.15"30.18"30.18"30.21"30.21"30.21"30.21"30.21"30.21"30.21"30.21"30.21"30.21"30.21"30.21"30.21"30.21"30.24"30.27"30.24"30.24"30.24"30.21"30.21"30.21"30.21"30.21"30.21"30.24"30.24"30.24"30.24"30.24"30.21"30.21"
Wind Speed 11.6 mph12.6 mph9.5 mph9.2 mph8.4 mph7.2 mph5.9 mph5.6 mph5.7 mph6.2 mph5.7 mph5.1 mph5.5 mph4.2 mph3.8 mph3.1 mph1.9 mph2.7 mph2.7 mph3.4 mph5.3 mph6.3 mph7 mph8.1 mph7.9 mph7.8 mph7.4 mph7 mph7.1 mph6.5 mph4.2 mph3.9 mph4.3 mph3.3 mph4.7 mph3.1 mph3.6 mph2.7 mph2.8 mph1.9 mph2.1 mph3.2 mph3.6 mph5.2 mph6 mph6.9 mph7.7 mph8.4 mph
Wind
Direction
216°
SW
217°
SW
223°
SW
224°
SW
203°
SSW
195°
SSW
187°
S
172°
S
169°
S
170°
S
174°
S
169°
S
174°
S
175°
S
160°
SSE
184°
S
166°
SSE
165°
SSE
193°
SSW
166°
SSE
157°
SSE
174°
S
163°
SSE
163°
SSE
163°
SSE
166°
SSE
169°
S
171°
S
164°
SSE
157°
SSE
180°
S
184°
S
156°
SSE
170°
S
172°
S
197°
SSW
166°
SSE
167°
SSE
203°
SSW
191°
S
214°
SW
244°
WSW
228°
SW
220°
SW
210°
SSW
214°
SW
215°
SW
212°
SSW

Daily Forecast

Date High Low Precip. Humidity
Today
Jun 17

Clouds
63 °F
51 °F
0%
75%
Tuesday
Jun 18

Clouds
75 °F
55 °F
14%
65%
Wednesday
Jun 19

Rain
82 °F
59 °F
100%
62%
Thursday
Jun 20

Rain
87 °F
64 °F
100%
57%
Friday
Jun 21

Clouds
79 °F
64 °F
0%
41%
Saturday
Jun 22

Rain
74 °F
62 °F
100%
68%
Sunday
Jun 23

Rain
76 °F
63 °F
100%
93%
Monday
Jun 24

Rain
71 °F
62 °F
100%
93%
Tuesday
Jun 25

Rain
76 °F
62 °F
100%
95%
Wednesday
Jun 26

Clouds
73 °F
57 °F
0%
65%
Thursday
Jun 27

Rain
79 °F
57 °F
20%
59%
Friday
Jun 28

Clouds
72 °F
51 °F
0%
36%
Saturday
Jun 29

Clouds
74 °F
58 °F
0%
61%
Sunday
Jun 30

Clouds
78 °F
64 °F
0%
71%
Monday
Jul 1

Rain
69 °F
64 °F
100%
92%
Tuesday
Jul 2

Rain
82 °F
66 °F
100%
99%

Temperature 8-14 Day Outlook



Precipitation 8-14 Day Outlook






About Us
Contact Us
Site Map
Search Site
Advertise With Us
   
BlueHill.USCoast.info
THE BLUE HILL WEBSITE

Copyright 2024, Coastal Town
Privacy    |    Legal